TimeEDT,TemperatureF,Dew PointF,Humidity,Sea Level PressureIn,VisibilityMPH,Wind Direction,Wind SpeedMPH,Gust SpeedMPH,PrecipitationIn,Events,Conditions,WindDirDegrees,DateUTC
12:12 AM,50.5,40.5,68,30.13,10.0,North,11.5,27.6,N/A,,Mostly Cloudy,350,2013-05-25 04:12:00
12:32 AM,50.5,39.6,66,30.13,10.0,North,13.8,24.2,N/A,,Scattered Clouds,350,2013-05-25 04:32:00
12:52 AM,50.0,39.2,66,30.13,10.0,NNW,13.8,20.7,N/A,,Scattered Clouds,340,2013-05-25 04:52:00
1:12 AM,49.8,38.8,66,30.13,10.0,NNW,16.1,23.0,N/A,,Scattered Clouds,340,2013-05-25 05:12:00
1:32 AM,49.3,39.4,69,30.13,10.0,North,9.2,21.9,N/A,,Scattered Clouds,350,2013-05-25 05:32:00
1:52 AM,49.5,38.5,66,30.12,10.0,NNW,16.1,19.6,N/A,,Scattered Clouds,340,2013-05-25 05:52:00
2:12 AM,50.0,37.9,63,30.12,10.0,NNW,15.0,19.6,N/A,,Mostly Cloudy,340,2013-05-25 06:12:00
2:32 AM,49.5,38.1,65,30.12,10.0,NNW,15.0,18.4,N/A,,Scattered Clouds,330,2013-05-25 06:32:00
2:52 AM,49.1,37.6,64,30.11,10.0,NNW,18.4,23.0,N/A,,Scattered Clouds,330,2013-05-25 06:52:00
3:12 AM,48.7,36.9,64,30.11,10.0,NNW,16.1,25.3,N/A,,Scattered Clouds,330,2013-05-25 07:12:00
3:32 AM,48.4,36.5,64,30.11,10.0,NNW,20.7,27.6,N/A,,Scattered Clouds,330,2013-05-25 07:32:00
3:52 AM,48.2,36.5,64,30.12,10.0,NNW,17.3,25.3,N/A,,Clear,330,2013-05-25 07:52:00
4:12 AM,47.5,36.7,66,30.12,10.0,NNW,20.7,26.5,N/A,,Clear,340,2013-05-25 08:12:00
4:32 AM,47.3,36.5,66,30.13,10.0,NNW,16.1,28.8,N/A,,Clear,330,2013-05-25 08:32:00
4:52 AM,46.9,36.9,68,30.13,10.0,NNW,12.7,23.0,N/A,,Clear,330,2013-05-25 08:52:00
5:12 AM,46.9,37.4,69,30.13,10.0,NNW,16.1,23.0,N/A,,Clear,330,2013-05-25 09:12:00
5:32 AM,46.9,37.4,69,30.13,10.0,NNW,17.3,25.3,N/A,,Clear,340,2013-05-25 09:32:00
5:52 AM,46.8,37.6,70,30.13,10.0,NNW,21.9,26.5,N/A,,Clear,330,2013-05-25 09:52:00
5:53 AM,46.4,37.4,71,30.13,10.0,NNW,20.7,29.9,N/A,,Clear,330,2013-05-25 09:53:00
6:12 AM,47.5,37.8,69,30.13,10.0,NNW,15.0,26.5,N/A,,Clear,330,2013-05-25 10:12:00
6:32 AM,48.2,38.1,68,30.13,10.0,NNW,15.0,26.5,N/A,,Clear,340,2013-05-25 10:32:00
6:52 AM,49.1,38.5,67,30.14,10.0,NNW,16.1,28.8,N/A,,Clear,330,2013-05-25 10:52:00
6:53 AM,48.2,39.2,71,30.14,10.0,NW,20.7,28.8,N/A,,Clear,320,2013-05-25 10:53:00
7:12 AM,49.5,38.8,67,30.14,10.0,NNW,20.7,26.5,N/A,,Clear,330,2013-05-25 11:12:00
7:32 AM,50.0,38.5,65,30.14,10.0,NNW,21.9,32.2,N/A,,Clear,330,2013-05-25 11:32:00
7:42 AM,50.2,38.5,64,30.15,10.0,NNW,21.9,27.6,N/A,,Clear,340,2013-05-25 11:42:00
7:53 AM,50.0,39.2,66,30.15,10.0,NNW,20.7,28.8,N/A,,Clear,330,2013-05-25 11:53:00
8:50 AM,53.6,39.2,58,30.16,10.0,NW,20.7,28.8,N/A,,Clear,310,2013-05-25 12:50:00
9:55 AM,55.4,39.2,54,30.15,10.0,NW,20.7,28.8,N/A,,Partly Cloudy,320,2013-05-25 13:55:00
10:50 AM,57.2,39.2,51,30.14,10.0,NW,18.4,29.9,N/A,,Scattered Clouds,310,2013-05-25 14:50:00
11:58 AM,59.0,39.2,48,30.14,10.0,NW,18.4,27.6,N/A,,Scattered Clouds,320,2013-05-25 15:58:00
12:50 PM,60.8,39.2,45,30.13,10.0,NW,18.4,29.9,N/A,,Scattered Clouds,320,2013-05-25 16:50:00
1:53 PM,62.6,41.0,45,30.12,10.0,SE,17.3,28.8,N/A,,Scattered Clouds,130,2013-05-25 17:53:00
2:52 PM,64.4,39.2,40,30.12,10.0,WNW,17.3,25.3,N/A,,Scattered Clouds,300,2013-05-25 18:52:00
3:51 PM,66.2,41.0,40,30.11,10.0,NW,9.2,26.5,N/A,,Scattered Clouds,310,2013-05-25 19:51:00
4:50 PM,64.4,39.2,40,30.10,10.0,NW,15.0,21.9,N/A,,Scattered Clouds,320,2013-05-25 20:50:00
5:50 PM,64.4,39.2,40,30.10,10.0,NW,16.1,21.9,N/A,,Scattered Clouds,320,2013-05-25 21:50:00
6:50 PM,64.4,39.2,40,30.10,10.0,WNW,9.2,19.6,N/A,,Scattered Clouds,300,2013-05-25 22:50:00
7:50 PM,62.6,39.2,42,30.11,10.0,NW,8.1,-,N/A,,Partly Cloudy,310,2013-05-25 23:50:00
8:51 PM,59.0,39.2,48,30.11,10.0,WNW,6.9,-,N/A,,Clear,290,2013-05-26 00:51:00
10:54 PM,59.4,41.2,51,30.14,10.0,NW,6.9,-,N/A,,Clear,310,2013-05-26 02:54:00
11:14 PM,59.0,39.6,49,30.15,10.0,NW,11.5,16.1,N/A,,Clear,320,2013-05-26 03:14:00
11:34 PM,58.3,39.2,49,30.15,10.0,NNW,8.1,-,N/A,,Clear,330,2013-05-26 03:34:00
11:54 PM,57.6,39.7,51,30.16,10.0,NNW,9.2,-,N/A,,Clear,330,2013-05-26 03:54:00